Regional Weather Roundup
Issued by NWS Kansas City/Pleasant Hill, MO

Home | Current Version | Previous Version | Graphics & Text | Print | Product List | Glossary Off
Versions: 1 2 3 4 5 6 7 8 9 10 11 12 13 14 15 16 17 18 19 20 21 22 23 24 25 26 27 28 29 30 31 32 33 34 35 36 37 38 39 40 41 42 43 44 45 46 47 48 49 50

000
ASUS43 KEAX 240404
RWREAX

WEATHER ROUNDUP FOR EASTERN KANSAS AND NORTHWEST MISSOURI
NATIONAL WEATHER SERVICE KANSAS CITY/PLEASANT HILL MO
1100 PM CDT SAT MAY 23 2015

KSZ040-057-103>105-MOZ028-029-037-043-240500-
...KANSAS CITY METROPOLITAN AREA...

CITY           SKY/WX    TMP DP  RH WIND       PRES   REMARKS
K.C. INTL      RAIN      61  60  97 E13       30.04F
K.C. DOWNTOWN  RAIN      62  59  90 E9        30.04S
LEES SUMMIT    RAIN      62  60  93 E8        30.05S
OLATHE - IXD   HVY RAIN  62  61  96 E13       30.02S FOG
OLATHE - OJC   HVY RAIN  62  61  96 E12       30.02S FOG
LAWRENCE       RAIN      62  60  93 E15       30.00F FOG

$$

MOZ001>008-011>017-020>025-030>033-038>040-044>046-053-054-240500-
...NORTHERN AND CENTRAL MISSOURI...

CITY           SKY/WX    TMP DP  RH WIND       PRES   REMARKS
ST. JOSEPH     LGT RAIN  61  59  93 E10       30.04F
MOSBY          RAIN      61  59  94 E6        30.06F
WHITEMAN AFB   NOT AVBL
CLINTON        DRIZZLE   64  61  88 E7        30.05F
SEDALIA        LGT RAIN  63  58  83 SE9       30.08R
WARSAW         NOT AVBL
CHILLICOTHE      N/A     66  58  75 SE3       30.09F
KIRKSVILLE     CLOUDY    66  54  65 E3        30.11F

$$

MOZ041-047>049-056>058-063>065-088>090-097-240500-
...EASTERN AND SOUTHERN MISSOURI...

CITY           SKY/WX    TMP DP  RH WIND       PRES   REMARKS
ST. LOUIS INTL CLOUDY    69  50  50 E8        30.14F
SPIRIT OF STL  CLOUDY    63  53  70 CALM      30.13F
COLUMBIA       CLOUDY    66  54  65 SE8       30.10F
JEFFERSON CITY CLOUDY    68  52  56 E7        30.09F
ROLLA          CLOUDY    64  52  64 SE8       30.10F
OSAGE BEACH    CLOUDY    66  52  59 SE8       30.08S
SPRINGFIELD    CLOUDY    68  58  70 SE23      30.03R
BRANSON        CLOUDY    66  59  77 SE14G20   30.07S
JOPLIN         RAIN      67  64  90 SE13      29.99R FOG
WEST PLAINS    MOCLDY    66  54  65 SE5       30.13S

$$

IAZ060-094-KSZ022-034>040-054-083-096-NEZ052-066-093-240500-
...KANSAS...SOUTHEAST NEBRASKA AND IOWA...

CITY           SKY/WX    TMP DP  RH WIND       PRES   REMARKS
TOPEKA         HVY RAIN  62  61  96 E16G28    29.97F FOG
MANHATTAN      CLOUDY    64  61  90 VRB5      29.89R
EMPORIA        LGT RAIN  61  60  97 NE21G28   29.87F
CHANUTE        HVY RAIN  67  65  93 SE13G29   29.93R FOG
WICHITA        CLOUDY    61  58  90 NW3       29.92R
OMAHA          CLOUDY    62  60  93 E9        30.01F
LINCOLN        CLOUDY    62  60  93 E5        30.00R
FALLS CITY     CLOUDY    62  60  93 E17G26    29.96S
LAMONI         CLOUDY    62  58  86 S3        30.09F
DES MOINES     CLOUDY    69  53  56 SE7       30.09F

$$




USA.gov is the U.S. government's official web portal to all federal, state and local government web resources and services.